Regional Weather Roundup
Issued by NWS

Home | Current Version | Previous Version | Text Only | Print | Product List | Glossary On
Versions: 1 2 3 4 5 6 7 8 9 10 11 12 13 14 15 16 17 18 19 20 21 22 23 24 25 26 27 28 29 30 31 32 33 34 35 36 37 38 39 40 41 42 43 44 45 46 47 48 49 50
000
ASUS43 KLSX 250910
RWRMO

WEATHER SUMMARY FOR MISSOURI
NATIONAL WEATHER SERVICE SPRINGFIELD MO
400 AM CDT MON JUL 25 2016

NOTE: "FAIR" INDICATES FEW OR NO CLOUDS BELOW 12,000 FEET WITH NO
       SIGNIFICANT WEATHER AND/OR OBSTRUCTIONS TO VISIBILITY.
       CURRENT SKY AND/OR WEATHER CONDITIONS ARE NOT AVAILABLE FOR
       CHILLICOTHE AND FARMINGTON.

MOZ001>031-035>038-043-044-053-054-251000-
...NORTHERN AND WESTERN MISSOURI...

CITY           SKY/WX    TMP DP  RH WIND       PRES   REMARKS
KANSAS CTY INT CLOUDY    75  67  76 NE7       30.03R
KANSAS C DTWN  CLOUDY    76  70  82 NE9       30.00R
LEE`S SUMMIT   CLOUDY    73  70  90 NE8       30.02R
ST JOSEPH      CLOUDY    70  67  90 N5        30.03R
CHILLICOTHE      N/A     74  68  81 N5        30.03F
KIRKSVILLE     CLOUDY    74  66  76 NE9       30.04R

$$
MOZ066>068-077>081-088>096-101>105-251000-
...SOUTHWEST MISSOURI...

CITY           SKY/WX    TMP DP  RH WIND       PRES   REMARKS
SPRINGFIELD    CLOUDY    80  73  79 SE3       29.98S
JOPLIN         MOCLDY    80  72  76 S7        29.97R
BRANSON        CLOUDY    75  70  83 CALM      30.01S

$$
MOZ032>034-039>042-045>050-055>058-069>072-251000-
...CENTRAL MISSOURI...

CITY           SKY/WX    TMP DP  RH WIND       PRES   REMARKS
COLUMBIA       CLOUDY    72  71  97 SE5       29.99F
JEFFERSON CITY LGT RAIN  74  71  91 SW3       29.96F
ROLLA          CLOUDY    72  70  93 CALM      30.00S
SEDALIA        TSTM      73  70  90 N10       30.01R
WHITEMAN AFB   PTCLDY    71  71 100 E5        29.96S
OSAGE BEACH    LGT RAIN  73  70  88 CALM      29.99F

$$
MOZ051-052-059>065-251000-
...EAST CENTRAL MISSOURI...

CITY           SKY/WX    TMP DP  RH WIND       PRES   REMARKS
ST LOUIS INTL  TSTM      74  71  91 CALM      30.04F FOG
SPIRIT OF STL  RAIN      73  71  93 E10       30.00F
ST CHARLES     TSTM      73  73 100 E14       30.03F FOG

$$
MOZ072>076-082>087-097>100-106>115-251000-
...SOUTH CENTRAL AND SOUTHEAST MISSOURI...

CITY           SKY/WX    TMP DP  RH WIND       PRES   REMARKS
CAPE GIRARDEAU CLEAR     76  75  97 S6        29.97F
FARMINGTON     MOCLDY    79  72  79 N17G24    30.04R
POPLAR BLUFF   PTCLDY    77  76  96 CALM      29.96F FOG
WEST PLAINS    PTCLDY    77  73  87 CALM      30.01F

$$




USA.gov is the U.S. government's official web portal to all federal, state and local government web resources and services.